Time,TemperatureF,DewpointF,PressureIn,WindDirection,WindDirectionDegrees,WindSpeedMPH,WindSpeedGustMPH,Humidity,HourlyPrecipIn,Conditions,Clouds,dailyrainin,SoftwareType,DateUTC
2013-01-25 00:03:00,51.0,49.0,30.31,North,357,0.0,0.0,94,0.00,,,0.00,,2013-01-25 05:03:00,
2013-01-25 00:12:00,51.0,50.0,30.32,North,357,0.0,0.0,95,0.00,,,0.00,,2013-01-25 05:12:00,
2013-01-25 00:22:00,51.0,50.0,30.32,North,357,0.0,0.0,95,0.00,,,0.00,,2013-01-25 05:22:00,
2013-01-25 00:32:00,50.0,49.0,30.32,North,356,0.0,0.0,95,0.00,,,0.00,,2013-01-25 05:32:00,
2013-01-25 00:43:00,50.0,49.0,30.32,North,356,0.0,0.0,95,0.00,,,0.00,,2013-01-25 05:43:00,
2013-01-25 00:52:00,50.0,49.0,30.32,North,357,0.0,0.0,95,0.00,,,0.00,,2013-01-25 05:52:00,
2013-01-25 01:02:00,49.0,48.0,30.32,North,356,0.0,0.0,95,0.00,,,0.00,,2013-01-25 06:02:00,
2013-01-25 01:11:00,49.0,48.0,30.32,North,356,0.0,0.0,95,0.00,,,0.00,,2013-01-25 06:11:00,
2013-01-25 01:22:00,50.0,49.0,30.32,North,356,0.0,0.0,96,0.00,,,0.00,,2013-01-25 06:22:00,
2013-01-25 01:32:00,50.0,49.0,30.32,North,357,0.0,0.0,96,0.00,,,0.00,,2013-01-25 06:32:00,
2013-01-25 01:42:00,50.0,49.0,30.32,North,357,0.0,0.0,96,0.00,,,0.00,,2013-01-25 06:42:00,
2013-01-25 01:52:00,49.0,48.0,30.32,North,356,0.0,0.0,95,0.00,,,0.00,,2013-01-25 06:52:00,
2013-01-25 02:02:00,49.0,48.0,30.32,North,356,0.0,0.0,96,0.00,,,0.00,,2013-01-25 07:02:00,
2013-01-25 02:11:00,49.0,48.0,30.32,North,356,0.0,0.0,96,0.00,,,0.00,,2013-01-25 07:11:00,
2013-01-25 02:21:00,48.0,47.0,30.31,North,356,0.0,0.0,96,0.00,,,0.00,,2013-01-25 07:21:00,
2013-01-25 02:32:00,49.0,48.0,30.29,North,357,0.0,0.0,97,0.00,,,0.00,,2013-01-25 07:32:00,
2013-01-25 02:42:00,49.0,48.0,30.29,North,357,0.0,0.0,97,0.00,,,0.00,,2013-01-25 07:42:00,
2013-01-25 02:52:00,49.0,48.0,30.29,North,357,0.0,0.0,97,0.00,,,0.00,,2013-01-25 07:52:00,
2013-01-25 03:02:00,49.0,48.0,30.29,North,356,0.0,0.0,96,0.00,,,0.00,,2013-01-25 08:02:00,
2013-01-25 03:12:00,51.0,50.0,30.29,North,356,0.0,0.0,98,0.00,,,0.00,,2013-01-25 08:12:00,
2013-01-25 03:21:00,51.0,50.0,30.29,North,356,0.0,0.0,98,0.00,,,0.00,,2013-01-25 08:21:00,
2013-01-25 03:32:00,50.0,49.0,30.28,North,357,0.0,0.0,96,0.00,,,0.00,,2013-01-25 08:32:00,
2013-01-25 03:42:00,50.0,49.0,30.28,North,357,0.0,0.0,96,0.00,,,0.00,,2013-01-25 08:42:00,
2013-01-25 03:52:00,49.0,48.0,30.28,North,357,0.0,0.0,96,0.00,,,0.00,,2013-01-25 08:52:00,
2013-01-25 04:02:00,49.0,48.0,30.27,North,356,0.0,0.0,97,0.00,,,0.00,,2013-01-25 09:02:00,
2013-01-25 04:11:00,49.0,48.0,30.27,North,356,0.0,0.0,97,0.00,,,0.00,,2013-01-25 09:11:00,
2013-01-25 04:21:00,48.0,47.0,30.27,North,357,0.0,0.0,96,0.00,,,0.00,,2013-01-25 09:21:00,
2013-01-25 04:32:00,48.0,47.0,30.27,North,357,0.0,0.0,96,0.00,,,0.00,,2013-01-25 09:32:00,
2013-01-25 04:42:00,48.0,47.0,30.27,North,357,0.0,0.0,96,0.00,,,0.00,,2013-01-25 09:42:00,
2013-01-25 04:52:00,48.0,47.0,30.28,North,357,0.0,0.0,97,0.00,,,0.00,,2013-01-25 09:52:00,
2013-01-25 05:02:00,48.0,47.0,30.28,North,357,0.0,0.0,97,0.00,,,0.00,,2013-01-25 10:02:00,
2013-01-25 05:12:00,48.0,47.0,30.28,North,357,0.0,0.0,97,0.00,,,0.00,,2013-01-25 10:12:00,
2013-01-25 05:21:00,48.0,47.0,30.28,North,357,0.0,0.0,97,0.00,,,0.00,,2013-01-25 10:21:00,
2013-01-25 05:32:00,48.0,47.0,30.29,North,357,0.0,0.0,97,0.00,,,0.00,,2013-01-25 10:32:00,
2013-01-25 05:42:00,48.0,47.0,30.29,North,357,0.0,0.0,97,0.00,,,0.00,,2013-01-25 10:42:00,
2013-01-25 05:52:00,48.0,47.0,30.29,North,356,0.0,0.0,97,0.00,,,0.00,,2013-01-25 10:52:00,
2013-01-25 06:03:00,49.0,48.0,30.29,North,357,0.0,0.0,97,0.00,,,0.00,,2013-01-25 11:03:00,
2013-01-25 06:11:00,49.0,48.0,30.29,North,357,0.0,0.0,97,0.00,,,0.00,,2013-01-25 11:11:00,
2013-01-25 06:22:00,49.0,48.0,30.29,North,357,0.0,0.0,97,0.00,,,0.00,,2013-01-25 11:22:00,
2013-01-25 06:33:00,48.0,47.0,30.30,North,357,0.0,0.0,97,0.00,,,0.00,,2013-01-25 11:33:00,
2013-01-25 06:42:00,48.0,47.0,30.30,North,357,0.0,0.0,97,0.00,,,0.00,,2013-01-25 11:42:00,
2013-01-25 06:52:00,49.0,48.0,30.31,North,357,0.0,0.0,98,0.00,,,0.00,,2013-01-25 11:52:00,
2013-01-25 07:02:00,50.0,49.0,30.32,North,356,0.0,0.0,97,0.00,,,0.00,,2013-01-25 12:02:00,
2013-01-25 07:12:00,50.0,49.0,30.32,North,356,0.0,0.0,97,0.00,,,0.00,,2013-01-25 12:12:00,
2013-01-25 07:22:00,50.0,49.0,30.32,North,356,0.0,0.0,97,0.00,,,0.00,,2013-01-25 12:22:00,
2013-01-25 07:32:00,50.0,49.0,30.32,North,357,0.0,0.0,98,0.00,,,0.00,,2013-01-25 12:32:00,
2013-01-25 07:42:00,50.0,49.0,30.32,North,357,0.0,0.0,98,0.00,,,0.00,,2013-01-25 12:42:00,
2013-01-25 07:53:00,50.0,49.0,30.32,North,357,0.0,0.0,97,0.00,,,0.00,,2013-01-25 12:53:00,
2013-01-25 08:02:00,50.0,49.0,30.32,North,356,0.0,0.0,98,0.00,,,0.00,,2013-01-25 13:02:00,
2013-01-25 08:12:00,50.0,49.0,30.32,North,356,0.0,0.0,98,0.00,,,0.00,,2013-01-25 13:12:00,
2013-01-25 08:22:00,51.0,50.0,30.32,North,357,0.0,0.0,98,0.00,,,0.00,,2013-01-25 13:22:00,
2013-01-25 08:32:00,51.0,50.0,30.32,North,357,0.0,0.0,98,0.00,,,0.00,,2013-01-25 13:32:00,
2013-01-25 08:43:00,51.0,50.0,30.32,North,357,0.0,0.0,98,0.00,,,0.00,,2013-01-25 13:43:00,
2013-01-25 08:53:00,53.0,53.0,30.33,North,356,0.0,0.0,99,0.00,,,0.00,,2013-01-25 13:53:00,
2013-01-25 09:03:00,56.0,56.0,30.33,NE,41,0.0,0.0,99,0.00,,,0.00,,2013-01-25 14:03:00,
2013-01-25 09:12:00,56.0,56.0,30.33,NE,41,0.0,0.0,99,0.00,,,0.00,,2013-01-25 14:12:00,
2013-01-25 09:23:00,58.0,58.0,30.33,NE,51,0.0,1.0,99,0.00,,,0.00,,2013-01-25 14:23:00,
2013-01-25 09:33:00,59.0,58.0,30.33,NNW,332,0.0,1.0,98,0.00,,,0.00,,2013-01-25 14:33:00,
2013-01-25 09:42:00,59.0,58.0,30.33,NNW,332,0.0,1.0,98,0.00,,,0.00,,2013-01-25 14:42:00,
2013-01-25 09:53:00,60.0,59.0,30.34,North,356,0.0,1.0,97,0.00,,,0.00,,2013-01-25 14:53:00,
2013-01-25 10:02:00,61.0,60.0,30.34,North,350,0.0,3.0,95,0.00,,,0.00,,2013-01-25 15:02:00,
2013-01-25 10:12:00,61.0,60.0,30.34,North,350,0.0,3.0,95,0.00,,,0.00,,2013-01-25 15:12:00,
2013-01-25 10:22:00,62.0,59.0,30.34,North,360,0.0,2.0,90,0.00,,,0.00,,2013-01-25 15:22:00,
2013-01-25 10:32:00,64.0,58.0,30.34,East,82,0.0,1.0,82,0.00,,,0.00,,2013-01-25 15:32:00,
2013-01-25 10:42:00,64.0,58.0,30.34,East,82,0.0,1.0,82,0.00,,,0.00,,2013-01-25 15:42:00,
2013-01-25 10:53:00,66.0,58.0,30.34,ENE,61,1.0,3.0,75,0.00,,,0.00,,2013-01-25 15:53:00,
2013-01-25 11:03:00,67.0,57.0,30.34,NE,39,1.0,2.0,70,0.00,,,0.00,,2013-01-25 16:03:00,
2013-01-25 11:12:00,67.0,57.0,30.34,NE,39,1.0,2.0,70,0.00,,,0.00,,2013-01-25 16:12:00,
2013-01-25 11:23:00,68.0,55.0,30.33,ENE,73,1.0,2.0,64,0.00,,,0.00,,2013-01-25 16:23:00,
2013-01-25 11:33:00,69.0,55.0,30.33,SE,131,1.0,2.0,61,0.00,,,0.00,,2013-01-25 16:33:00,
2013-01-25 11:43:00,69.0,55.0,30.33,SE,131,1.0,2.0,61,0.00,,,0.00,,2013-01-25 16:43:00,
2013-01-25 11:53:00,70.0,54.0,30.32,NE,38,0.0,2.0,56,0.00,,,0.00,,2013-01-25 16:53:00,
2013-01-25 12:03:00,72.0,53.0,30.31,ESE,120,1.0,3.0,51,0.00,,,0.00,,2013-01-25 17:03:00,
2013-01-25 12:12:00,72.0,53.0,30.31,ESE,120,1.0,3.0,51,0.00,,,0.00,,2013-01-25 17:12:00,
2013-01-25 12:22:00,72.0,52.0,30.30,South,180,0.0,3.0,49,0.00,,,0.00,,2013-01-25 17:22:00,
2013-01-25 12:33:00,72.0,49.0,30.29,South,186,1.0,4.0,45,0.00,,,0.00,,2013-01-25 17:33:00,
2013-01-25 12:43:00,72.0,49.0,30.29,South,186,1.0,4.0,45,0.00,,,0.00,,2013-01-25 17:43:00,
2013-01-25 12:53:00,72.0,49.0,30.29,SW,224,0.0,2.0,45,0.00,,,0.00,,2013-01-25 17:53:00,
2013-01-25 13:03:00,73.0,50.0,30.28,East,96,0.0,2.0,44,0.00,,,0.00,,2013-01-25 18:03:00,
2013-01-25 13:12:00,73.0,50.0,30.28,East,96,0.0,2.0,44,0.00,,,0.00,,2013-01-25 18:12:00,
2013-01-25 13:23:00,74.0,49.0,30.27,SSE,148,0.0,7.0,42,0.00,,,0.00,,2013-01-25 18:23:00,
2013-01-25 13:33:00,74.0,51.0,30.27,WNW,289,0.0,4.0,45,0.00,,,0.00,,2013-01-25 18:33:00,
2013-01-25 13:42:00,74.0,51.0,30.27,WNW,289,0.0,4.0,45,0.00,,,0.00,,2013-01-25 18:42:00,
2013-01-25 13:52:00,72.0,51.0,30.26,SSW,203,2.0,6.0,47,0.00,,,0.00,,2013-01-25 18:52:00,
2013-01-25 14:03:00,73.0,52.0,30.25,SW,219,2.0,6.0,48,0.00,,,0.00,,2013-01-25 19:03:00,
2013-01-25 14:12:00,73.0,52.0,30.25,SW,219,2.0,6.0,48,0.00,,,0.00,,2013-01-25 19:12:00,
2013-01-25 14:23:00,72.0,51.0,30.25,WSW,256,2.0,4.0,47,0.00,,,0.00,,2013-01-25 19:23:00,
2013-01-25 14:33:00,72.0,52.0,30.25,SSW,193,2.0,6.0,50,0.00,,,0.00,,2013-01-25 19:33:00,
2013-01-25 14:42:00,72.0,52.0,30.25,SSW,193,2.0,6.0,50,0.00,,,0.00,,2013-01-25 19:42:00,
2013-01-25 14:53:00,71.0,52.0,30.24,SW,235,2.0,6.0,51,0.00,,,0.00,,2013-01-25 19:53:00,
2013-01-25 15:03:00,71.0,52.0,30.23,West,274,1.0,7.0,52,0.00,,,0.00,,2013-01-25 20:03:00,
2013-01-25 15:12:00,71.0,52.0,30.23,West,274,1.0,7.0,52,0.00,,,0.00,,2013-01-25 20:12:00,
2013-01-25 15:23:00,71.0,51.0,30.23,WSW,243,3.0,6.0,50,0.00,,,0.00,,2013-01-25 20:23:00,
2013-01-25 15:32:00,71.0,53.0,30.23,SSW,201,3.0,6.0,53,0.00,,,0.00,,2013-01-25 20:32:00,
2013-01-25 15:42:00,71.0,53.0,30.23,SSW,201,3.0,6.0,53,0.00,,,0.00,,2013-01-25 20:42:00,
2013-01-25 15:53:00,71.0,53.0,30.22,SW,232,4.0,6.0,53,0.00,,,0.00,,2013-01-25 20:53:00,
2013-01-25 16:02:00,71.0,53.0,30.22,West,264,3.0,6.0,53,0.00,,,0.00,,2013-01-25 21:02:00,
2013-01-25 16:12:00,71.0,53.0,30.22,West,264,3.0,6.0,53,0.00,,,0.00,,2013-01-25 21:12:00,
2013-01-25 16:23:00,71.0,54.0,30.22,SW,229,3.0,5.0,55,0.00,,,0.00,,2013-01-25 21:23:00,
2013-01-25 16:33:00,71.0,53.0,30.22,WSW,239,2.0,4.0,53,0.00,,,0.00,,2013-01-25 21:33:00,
2013-01-25 16:42:00,71.0,53.0,30.22,WSW,239,2.0,4.0,53,0.00,,,0.00,,2013-01-25 21:42:00,
2013-01-25 16:52:00,70.0,52.0,30.22,WSW,255,2.0,5.0,52,0.00,,,0.00,,2013-01-25 21:52:00,
2013-01-25 17:03:00,71.0,51.0,30.22,WSW,243,3.0,5.0,50,0.00,,,0.00,,2013-01-25 22:03:00,
2013-01-25 17:12:00,71.0,51.0,30.22,WSW,243,3.0,5.0,50,0.00,,,0.00,,2013-01-25 22:12:00,
2013-01-25 17:23:00,70.0,51.0,30.23,West,276,2.0,4.0,51,0.00,,,0.00,,2013-01-25 22:23:00,
2013-01-25 17:33:00,70.0,52.0,30.23,West,274,1.0,3.0,52,0.00,,,0.00,,2013-01-25 22:33:00,
2013-01-25 17:42:00,70.0,52.0,30.23,West,274,1.0,3.0,52,0.00,,,0.00,,2013-01-25 22:42:00,
2013-01-25 17:53:00,69.0,52.0,30.23,WSW,238,1.0,5.0,54,0.00,,,0.00,,2013-01-25 22:53:00,
2013-01-25 18:02:00,67.0,50.0,30.23,WSW,248,1.0,4.0,54,0.00,,,0.00,,2013-01-25 23:02:00,
2013-01-25 18:12:00,67.0,50.0,30.23,WSW,248,1.0,4.0,54,0.00,,,0.00,,2013-01-25 23:12:00,
2013-01-25 18:22:00,66.0,51.0,30.23,West,266,0.0,0.0,58,0.00,,,0.00,,2013-01-25 23:22:00,
2013-01-25 18:32:00,64.0,51.0,30.24,West,265,0.0,0.0,63,0.00,,,0.00,,2013-01-25 23:32:00,
2013-01-25 18:42:00,64.0,51.0,30.24,West,265,0.0,0.0,63,0.00,,,0.00,,2013-01-25 23:42:00,
2013-01-25 18:53:00,62.0,51.0,30.24,West,265,0.0,0.0,68,0.00,,,0.00,,2013-01-25 23:53:00,
2013-01-25 19:02:00,61.0,52.0,30.23,West,266,0.0,0.0,73,0.00,,,0.00,,2013-01-26 00:02:00,
2013-01-25 19:12:00,61.0,52.0,30.23,West,266,0.0,0.0,73,0.00,,,0.00,,2013-01-26 00:12:00,
2013-01-25 19:22:00,60.0,53.0,30.24,West,266,0.0,0.0,77,0.00,,,0.00,,2013-01-26 00:22:00,
2013-01-25 19:32:00,59.0,52.0,30.24,West,266,0.0,0.0,78,0.00,,,0.00,,2013-01-26 00:32:00,
2013-01-25 19:42:00,59.0,52.0,30.24,West,266,0.0,0.0,78,0.00,,,0.00,,2013-01-26 00:42:00,
2013-01-25 19:53:00,58.0,52.0,30.25,West,266,0.0,0.0,81,0.00,,,0.00,,2013-01-26 00:53:00,
2013-01-25 20:02:00,57.0,52.0,30.25,West,265,0.0,0.0,84,0.00,,,0.00,,2013-01-26 01:02:00,
2013-01-25 20:12:00,57.0,52.0,30.25,West,265,0.0,0.0,84,0.00,,,0.00,,2013-01-26 01:12:00,
2013-01-25 20:22:00,57.0,53.0,30.25,West,266,0.0,0.0,85,0.00,,,0.00,,2013-01-26 01:22:00,
2013-01-25 20:32:00,56.0,52.0,30.25,West,266,0.0,0.0,87,0.00,,,0.00,,2013-01-26 01:32:00,
2013-01-25 20:42:00,56.0,52.0,30.25,West,266,0.0,0.0,87,0.00,,,0.00,,2013-01-26 01:42:00,
2013-01-25 20:52:00,55.0,52.0,30.25,West,266,0.0,0.0,88,0.00,,,0.00,,2013-01-26 01:52:00,
2013-01-25 21:02:00,55.0,52.0,30.25,West,265,0.0,0.0,88,0.00,,,0.00,,2013-01-26 02:02:00,
2013-01-25 21:11:00,55.0,52.0,30.25,West,265,0.0,0.0,88,0.00,,,0.00,,2013-01-26 02:11:00,
2013-01-25 21:22:00,54.0,51.0,30.25,West,266,0.0,0.0,90,0.00,,,0.00,,2013-01-26 02:22:00,
2013-01-25 21:32:00,54.0,51.0,30.25,West,266,0.0,0.0,91,0.00,,,0.00,,2013-01-26 02:32:00,
2013-01-25 21:42:00,54.0,51.0,30.25,West,266,0.0,0.0,91,0.00,,,0.00,,2013-01-26 02:42:00,
2013-01-25 21:52:00,53.0,50.0,30.25,West,266,0.0,0.0,91,0.00,,,0.00,,2013-01-26 02:52:00,
2013-01-25 22:02:00,53.0,50.0,30.25,West,266,0.0,0.0,91,0.00,,,0.00,,2013-01-26 03:02:00,
2013-01-25 22:12:00,53.0,50.0,30.25,West,266,0.0,0.0,91,0.00,,,0.00,,2013-01-26 03:12:00,
2013-01-25 22:22:00,52.0,50.0,30.25,West,266,0.0,0.0,92,0.00,,,0.00,,2013-01-26 03:22:00,
2013-01-25 22:32:00,52.0,50.0,30.25,West,266,0.0,0.0,93,0.00,,,0.00,,2013-01-26 03:32:00,
2013-01-25 22:43:00,52.0,50.0,30.25,West,266,0.0,0.0,93,0.00,,,0.00,,2013-01-26 03:43:00,
2013-01-25 22:52:00,52.0,50.0,30.25,West,266,0.0,0.0,93,0.00,,,0.00,,2013-01-26 03:52:00,
2013-01-25 23:02:00,52.0,50.0,30.25,West,266,0.0,0.0,93,0.00,,,0.00,,2013-01-26 04:02:00,
2013-01-25 23:12:00,52.0,50.0,30.25,West,266,0.0,0.0,93,0.00,,,0.00,,2013-01-26 04:12:00,
2013-01-25 23:21:00,52.0,50.0,30.25,West,266,0.0,0.0,94,0.00,,,0.00,,2013-01-26 04:21:00,
2013-01-25 23:32:00,52.0,51.0,30.24,West,265,0.0,0.0,95,0.00,,,0.00,,2013-01-26 04:32:00,
2013-01-25 23:42:00,52.0,51.0,30.24,West,265,0.0,0.0,95,0.00,,,0.00,,2013-01-26 04:42:00,
2013-01-25 23:52:00,52.0,50.0,30.25,West,266,0.0,0.0,94,0.00,,,0.00,,2013-01-26 04:52:00,